Terminal Aerodrome Forecast
Issued by NWS Louisville, KY

Home | Current Version | Previous Version | Text Only | Print | Product List | Glossary On
Versions: 1 2 3 4 5 6 7 8 9 10 11 12 13 14 15 16 17 18 19 20 21
000
FTUS43 KLMK 201400 AAA
TAFSDF
TAF AMD
KSDF 201409Z 2014/2118 21012G18KT P6SM SCT050 BKN250
     FM210100 20005KT P6SM BKN250
     FM211100 25009KT P6SM VCSH SCT040 BKN250=

USA.gov is the U.S. government's official web portal to all federal, state and local government web resources and services.